| time (UTC) | temp C | wind direction | speed KPH | gust KPH | rain 1hr cm | rain 24hr cm | rain mn cm | humidity % | barometer mb |
| 20260503030026 | 2 | 130 | 0.0 | 3.2 | 0.00 | 0.00 | 0.00 | 80 | 1008.6 |
| 20260503024524 | 2 | 130 | 1.6 | 3.2 | 0.00 | 0.00 | 0.00 | 80 | 1008.8 |
| 20260503023040 | 2 | 130 | 0.0 | 0.0 | 0.00 | 0.00 | 0.00 | 79 | 1008.8 |
| 20260503021512 | 2 | 130 | 0.0 | 3.2 | 0.00 | 0.00 | 0.00 | 78 | 1008.7 |
| 20260503020020 | 2 | 130 | 0.0 | 3.2 | 0.00 | 0.00 | 0.00 | 78 | 1008.8 |
| 20260503014522 | 2 | 130 | 0.0 | 3.2 | 0.00 | 0.00 | 0.00 | 77 | 1008.9 |
| 20260503013023 | 2 | 130 | 0.0 | 0.0 | 0.00 | 0.00 | 0.00 | 77 | 1009.0 |
| 20260503011525 | 2 | 130 | 0.0 | 0.0 | 0.00 | 0.00 | 0.00 | 77 | 1009.0 |
| 20260503010021 | 2 | 130 | 0.0 | 0.0 | 0.00 | 0.00 | 0.00 | 75 | 1009.1 |
| 20260503004523 | 3 | 130 | 0.0 | 1.6 | 0.00 | 0.00 | 0.00 | 73 | 1009.3 |
| 20260503001525 | 3 | 130 | 0.0 | 4.8 | 0.00 | 0.00 | 0.00 | 67 | 1009.6 |
| 20260503000026 | 5 | 130 | 1.6 | 6.4 | 0.00 | 0.00 | 0.00 | 64 | 1009.8 |
| 20260502234515 | 5 | 130 | 4.8 | 8.0 | 0.00 | 0.00 | 0.00 | 62 | 1009.9 |
| 20260502233020 | 5 | 131 | 3.2 | 9.7 | 0.00 | 0.00 | 0.00 | 61 | 1010.2 |
| 20260502231526 | 5 | 123 | 4.8 | 12.9 | 0.00 | 0.00 | 0.00 | 63 | 1010.3 |
| 20260502230023 | 6 | 103 | 6.4 | 11.3 | 0.00 | 0.00 | 0.00 | 64 | 1010.5 |
| 20260502224524 | 6 | 136 | 4.8 | 9.7 | 0.00 | 0.00 | 0.00 | 64 | 1010.7 |
| 20260502223019 | 6 | 109 | 4.8 | 12.9 | 0.00 | 0.00 | 0.00 | 62 | 1010.8 |
| 20260502221523 | 5 | 122 | 8.0 | 16.1 | 0.00 | 0.00 | 0.00 | 62 | 1010.8 |
| 20260502220025 | 6 | 97 | 9.7 | 19.3 | 0.00 | 0.00 | 0.00 | 61 | 1011.1 |
| 20260502214508 | 7 | 101 | 3.2 | 12.9 | 0.00 | 0.00 | 0.00 | 55 | 1011.1 |
| 20260502213017 | 9 | 72 | 6.4 | 16.1 | 0.00 | 0.00 | 0.00 | 47 | 1011.2 |
| 20260502211522 | 10 | 66 | 3.2 | 14.5 | 0.00 | 0.00 | 0.00 | 43 | 1011.2 |
| 20260502210025 | 10 | 142 | 6.4 | 20.9 | 0.00 | 0.00 | 0.00 | 44 | 1011.3 |
| 20260502204519 | 11 | 162 | 6.4 | 25.7 | 0.00 | 0.00 | 0.00 | 41 | 1011.4 |
| 20260502203016 | 10 | 195 | 4.8 | 27.4 | 0.00 | 0.00 | 0.00 | 41 | 1011.8 |
| 20260502201519 | 8 | 224 | 8.0 | 19.3 | 0.00 | 0.00 | 0.00 | 50 | 1012.0 |
| 20260502200022 | 6 | 91 | 3.2 | 16.1 | 0.00 | 0.00 | 0.00 | 71 | 1012.4 |
| 20260502194531 | 6 | 78 | 8.0 | 19.3 | 0.00 | 0.00 | 0.00 | 68 | 1012.6 |
| 20260502191520 | 5 | 123 | 6.4 | 17.7 | 0.00 | 0.00 | 0.00 | 72 | 1013.0 |
| 20260502190020 | 6 | 92 | 8.0 | 16.1 | 0.00 | 0.00 | 0.00 | 69 | 1013.4 |
| 20260502184531 | 6 | 132 | 8.0 | 17.7 | 0.00 | 0.00 | 0.00 | 64 | 1013.5 |
| 20260502183027 | 8 | 100 | 9.7 | 17.7 | 0.00 | 0.00 | 0.00 | 56 | 1013.6 |
| 20260502181513 | 9 | 117 | 4.8 | 20.9 | 0.00 | 0.00 | 0.00 | 52 | 1013.7 |
| 20260502161528 | 6 | 90 | 8.0 | 12.9 | 0.00 | 0.00 | 0.00 | 63 | 1015.3 |
| 20260502151535 | 6 | 131 | 4.8 | 11.3 | 0.00 | 0.00 | 0.00 | 60 | 1015.8 |
| 20260502123022 | 0 | 330 | 0.0 | 6.4 | 0.00 | 0.00 | 0.00 | 79 | 1016.8 |
| 20260502121521 | -1 | 329 | 0.0 | 8.0 | 0.00 | 0.00 | 0.00 | 83 | 1016.8 |
| 20260502114509 | -2 | 328 | 1.6 | 6.4 | 0.00 | 0.00 | 0.00 | 87 | 1017.1 |
| 20260502113010 | -3 | 341 | 0.0 | 8.0 | 0.00 | 0.00 | 0.00 | 88 | 1017.0 |
| 20260502111514 | -3 | 339 | 0.0 | 9.7 | 0.00 | 0.00 | 0.00 | 88 | 1017.0 |
| 20260502110026 | -3 | 345 | 1.6 | 8.0 | 0.00 | 0.00 | 0.00 | 88 | 1017.0 |
| 20260502104525 | -3 | 359 | 3.2 | 6.4 | 0.00 | 0.00 | 0.00 | 89 | 1017.0 |
| 20260502103007 | -3 | 319 | 3.2 | 6.4 | 0.00 | 0.00 | 0.00 | 88 | 1017.0 |
| 20260502101512 | -3 | 310 | 1.6 | 11.3 | 0.00 | 0.00 | 0.00 | 88 | 1017.1 |
| 20260502091509 | -3 | 352 | 1.6 | 8.0 | 0.00 | 0.00 | 0.00 | 89 | 1017.2 |
| 20260502071526 | -2 | 143 | 1.6 | 6.4 | 0.00 | 0.00 | 0.00 | 88 | 1017.7 |
| 20260502070028 | -2 | 148 | 1.6 | 6.4 | 0.00 | 0.00 | 0.00 | 89 | 1017.7 |
| 20260502063021 | -2 | 147 | 3.2 | 6.4 | 0.00 | 0.00 | 0.00 | 90 | 1018.0 |
| 20260502061522 | -3 | 146 | 1.6 | 6.4 | 0.00 | 0.00 | 0.00 | 90 | 1018.1 |
| 20260502060008 | -3 | 146 | 1.6 | 4.8 | 0.00 | 0.00 | 0.00 | 89 | 1018.2 |
| 20260502054508 | -3 | 146 | 1.6 | 6.4 | 0.00 | 0.00 | 0.00 | 89 | 1018.3 |
| 20260502053016 | -3 | 146 | 1.6 | 3.2 | 0.00 | 0.00 | 0.00 | 88 | 1018.3 |
| 20260502051519 | -2 | 146 | 1.6 | 4.8 | 0.00 | 0.00 | 0.00 | 88 | 1018.3 |
| 20260502050027 | -2 | 146 | 1.6 | 3.2 | 0.00 | 0.00 | 0.00 | 88 | 1018.4 |
| 20260502044504 | -2 | 146 | 0.0 | 4.8 | 0.00 | 0.00 | 0.00 | 87 | 1018.4 |
| 20260502043012 | -2 | 146 | 1.6 | 4.8 | 0.00 | 0.00 | 0.00 | 87 | 1018.5 |
| 20260502041518 | -2 | 146 | 0.0 | 4.8 | 0.00 | 0.00 | 0.00 | 86 | 1018.6 |
| 20260502040023 | -2 | 146 | 0.0 | 3.2 | 0.00 | 0.00 | 0.00 | 86 | 1018.6 |
| 20260502033011 | -2 | 146 | 0.0 | 3.2 | 0.00 | 0.00 | 0.00 | 85 | 1018.5 |
| 20260502031511 | -2 | 146 | 0.0 | 3.2 | 0.00 | 0.00 | 0.00 | 84 | 1018.5 |